• In Österreich
  • Länderverzeichnis
  • Für 7 Tage
  • Wassertemperatur
  • Satellitenkarten
  • Wetterkarte
  • News
  • Widgets
  • user-avatar
    Anmelden

    Stündliche Wetter Salzburg

    Heute, 25 Februar, Sonntag

    Zeit Temperatur Niederschläge Wind Luftdruck Luftfeuchtigkeit
    00:00 -16°C° 0 mm 2 m/S 620 mmHg 91%
    01:00 -17°C° 0 mm 2 m/S 620 mmHg 90%
    02:00 -18°C° 0 mm 2 m/S 620 mmHg 91%
    03:00 -18°C° 0 mm 2 m/S 620 mmHg 91%
    04:00 -19°C° 0 mm 2 m/S 619 mmHg 91%
    05:00 -20°C° 0 mm 2 m/S 619 mmHg 91%
    06:00 -20°C° 0 mm 2 m/S 619 mmHg 91%
    07:00 -21°C° 0 mm 2 m/S 619 mmHg 92%
    08:00 -19°C° 0 mm 2 m/S 619 mmHg 88%
    09:00 -18°C° 0 mm 2 m/S 620 mmHg 85%
    10:00 -16°C° 0 mm 2 m/S 620 mmHg 81%
    11:00 -15°C° 0 mm 2 m/S 620 mmHg 79%
    12:00 -14°C° 0 mm 2 m/S 621 mmHg 76%
    13:00 -13°C° 0 mm 2 m/S 621 mmHg 74%
    14:00 -14°C° 0 mm 2 m/S 620 mmHg 76%
    15:00 -14°C° 0 mm 2 m/S 620 mmHg 77%
    16:00 -14°C° 0 mm 2 m/S 620 mmHg 79%
    17:00 -16°C° 0,1 mm 2 m/S 619 mmHg 83%
    18:00 -17°C° 0,1 mm 2 m/S 619 mmHg 87%
    19:00 -19°C° 0,1 mm 2 m/S 619 mmHg 90%
    20:00 -18°C° 0 mm 1 m/S 619 mmHg 91%
    21:00 -19°C° 0 mm 1 m/S 618 mmHg 91%
    22:00 -19°C° 0 mm 1 m/S 618 mmHg 92%
    23:00 -20°C° 0 mm 1 m/S 618 mmHg 92%

    Morgen, 26 Februar, Montag

    Zeit Temperatur Niederschläge Wind Luftdruck Luftfeuchtigkeit
    00:00 -20°C° 0 mm 1 m/S 618 mmHg 92%
    01:00 -21°C° 0 mm 1 m/S 618 mmHg 92%
    02:00 -21°C° 0 mm 1 m/S 617 mmHg 92%
    03:00 -22°C° 0 mm 1 m/S 617 mmHg 92%
    04:00 -22°C° 0 mm 1 m/S 617 mmHg 92%
    05:00 -23°C° 0 mm 1 m/S 616 mmHg 92%
    06:00 -23°C° 0 mm 1 m/S 616 mmHg 92%
    07:00 -24°C° 0 mm 1 m/S 616 mmHg 92%
    08:00 -22°C° 0 mm 1 m/S 617 mmHg 89%
    09:00 -23°C° 0 mm 2 m/S 618 mmHg 85%
    10:00 -20°C° 0 mm 2 m/S 618 mmHg 81%
    11:00 -19°C° 0 mm 2 m/S 618 mmHg 80%
    12:00 -18°C° 0 mm 2 m/S 618 mmHg 78%
    13:00 -17°C° 0 mm 2 m/S 618 mmHg 77%
    14:00 -17°C° 0,1 mm 2 m/S 618 mmHg 78%
    15:00 -18°C° 0,1 mm 2 m/S 618 mmHg 79%
    16:00 -18°C° 0,1 mm 2 m/S 617 mmHg 80%
    17:00 -19°C° 0,1 mm 2 m/S 617 mmHg 84%
    18:00 -20°C° 0,1 mm 2 m/S 617 mmHg 87%
    19:00 -19°C° 0,1 mm 1 m/S 617 mmHg 91%
    20:00 -19°C° 0,1 mm 1 m/S 617 mmHg 91%
    21:00 -20°C° 0,1 mm 1 m/S 617 mmHg 92%
    22:00 -20°C° 0,1 mm 1 m/S 617 mmHg 92%
    23:00 -20°C° 0,1 mm 1 m/S 617 mmHg 92%

    übermorgen, 27 Februar, Dienstag

    Zeit Temperatur Niederschläge Wind Luftdruck Luftfeuchtigkeit
    00:00 -21°C° 0,1 mm 1 m/S 616 mmHg 93%
    01:00 -21°C° 0,1 mm 1 m/S 616 mmHg 93%
    02:00 -21°C° 0 mm 1 m/S 616 mmHg 93%
    03:00 -21°C° 0 mm 1 m/S 615 mmHg 93%
    04:00 -22°C° 0 mm 1 m/S 615 mmHg 92%
    05:00 -22°C° 0 mm 1 m/S 615 mmHg 92%
    06:00 -22°C° 0 mm 1 m/S 615 mmHg 92%
    07:00 -23°C° 0 mm 1 m/S 615 mmHg 92%
    08:00 -21°C° 0 mm 1 m/S 615 mmHg 89%
    09:00 -19°C° 0 mm 1 m/S 616 mmHg 85%
    10:00 -17°C° 0 mm 1 m/S 616 mmHg 81%
    11:00 -16°C° 0 mm 1 m/S 616 mmHg 79%
    12:00 -15°C° 0 mm 1 m/S 616 mmHg 76%
    13:00 -14°C° 0 mm 1 m/S 617 mmHg 73%
    14:00 -14°C° 0,1 mm 1 m/S 616 mmHg 75%
    15:00 -14°C° 0,1 mm 1 m/S 616 mmHg 77%
    16:00 -15°C° 0,1 mm 1 m/S 616 mmHg 79%
    17:00 -16°C° 0,1 mm 1 m/S 616 mmHg 83%
    18:00 -18°C° 0,1 mm 1 m/S 616 mmHg 87%
    19:00 -19°C° 0,1 mm 1 m/S 615 mmHg 91%
    20:00 -20°C° 0 mm 1 m/S 615 mmHg 91%
    21:00 -20°C° 0 mm 1 m/S 616 mmHg 91%
    22:00 -21°C° 0 mm 1 m/S 616 mmHg 91%
    23:00 -21°C° 0 mm 1 m/S 616 mmHg 90%

    28 Februar, Mittwoch

    Zeit Temperatur Niederschläge Wind Luftdruck Luftfeuchtigkeit
    00:00 -21°C° 0 mm 1 m/S 616 mmHg 90%
    01:00 -22°C° 0 mm 1 m/S 616 mmHg 89%
    02:00 -22°C° 0 mm 1 m/S 616 mmHg 88%
    03:00 -22°C° 0 mm 1 m/S 616 mmHg 87%
    04:00 -22°C° 0 mm 1 m/S 616 mmHg 87%
    05:00 -22°C° 0 mm 1 m/S 616 mmHg 86%
    06:00 -22°C° 0 mm 1 m/S 616 mmHg 85%
    07:00 -22°C° 0 mm 1 m/S 616 mmHg 84%
    08:00 -19°C° 0 mm 1 m/S 617 mmHg 79%
    09:00 -16°C° 0 mm 1 m/S 619 mmHg 73%
    10:00 -14°C° 0 mm 1 m/S 620 mmHg 68%
    11:00 -13°C° 0 mm 1 m/S 620 mmHg 66%
    12:00 -11°C° 0 mm 1 m/S 620 mmHg 63%
    13:00 -10°C° 0 mm 1 m/S 620 mmHg 61%
    14:00 -10°C° 0 mm 1 m/S 620 mmHg 64%
    15:00 -10°C° 0 mm 1 m/S 620 mmHg 67%
    16:00 -12°C° 0 mm 2 m/S 620 mmHg 70%
    17:00 -14°C° 0 mm 2 m/S 619 mmHg 75%
    18:00 -16°C° 0 mm 2 m/S 619 mmHg 81%
    19:00 -18°C° 0 mm 2 m/S 619 mmHg 86%
    20:00 -18°C° 0 mm 2 m/S 619 mmHg 86%
    21:00 -18°C° 0 mm 2 m/S 619 mmHg 86%
    22:00 -19°C° 0 mm 2 m/S 619 mmHg 86%
    23:00 -19°C° 0 mm 2 m/S 618 mmHg 85%

    1 März, Donnerstag

    Zeit Temperatur Niederschläge Wind Luftdruck Luftfeuchtigkeit
    00:00 -19°C° 0 mm 2 m/S 618 mmHg 84%
    01:00 -19°C° 0 mm 2 m/S 618 mmHg 84%
    02:00 -18°C° 0 mm 2 m/S 618 mmHg 83%
    03:00 -18°C° 0 mm 2 m/S 617 mmHg 82%
    04:00 -18°C° 0 mm 2 m/S 617 mmHg 81%
    05:00 -18°C° 0 mm 2 m/S 617 mmHg 80%
    06:00 -17°C° 0 mm 2 m/S 617 mmHg 80%
    07:00 -17°C° 0 mm 2 m/S 617 mmHg 80%
    08:00 -14°C° 0 mm 2 m/S 617 mmHg 78%
    09:00 -12°C° 0 mm 2 m/S 618 mmHg 75%
    10:00 -8°C° 0 mm 2 m/S 619 mmHg 73%
    11:00 -7°C° 0 mm 2 m/S 618 mmHg 75%
    12:00 -6°C° 0 mm 2 m/S 618 mmHg 77%
    13:00 -5°C° 0 mm 2 m/S 618 mmHg 78%
    14:00 -5°C° 0 mm 2 m/S 618 mmHg 79%
    15:00 -5°C° 0 mm 2 m/S 618 mmHg 80%
    16:00 -5°C° 0 mm 2 m/S 617 mmHg 81%
    17:00 -6°C° 0 mm 2 m/S 617 mmHg 83%
    18:00 -8°C° 0 mm 2 m/S 617 mmHg 86%
    19:00 -9°C° 0 mm 2 m/S 616 mmHg 88%
    20:00 -9°C° 0 mm 2 m/S 616 mmHg 87%
    21:00 -9°C° 0 mm 2 m/S 616 mmHg 87%
    22:00 -9°C° 0 mm 2 m/S 616 mmHg 87%
    23:00 -9°C° 0 mm 2 m/S 616 mmHg 87%

    2 März, Freitag

    Zeit Temperatur Niederschläge Wind Luftdruck Luftfeuchtigkeit
    00:00 -9°C° 0 mm 2 m/S 616 mmHg 87%
    01:00 -10°C° 0 mm 2 m/S 616 mmHg 87%
    02:00 -9°C° 0 mm 2 m/S 615 mmHg 87%
    03:00 -9°C° 0 mm 2 m/S 615 mmHg 88%
    04:00 -9°C° 0 mm 2 m/S 615 mmHg 88%
    05:00 -8°C° 0 mm 2 m/S 615 mmHg 88%
    06:00 -8°C° 0 mm 2 m/S 615 mmHg 87%
    07:00 -8°C° 0 mm 2 m/S 615 mmHg 87%
    08:00 -6°C° 0 mm 2 m/S 616 mmHg 88%
    09:00 -4°C° 0 mm 2 m/S 616 mmHg 88%
    10:00 -2°C° 0 mm 2 m/S 617 mmHg 88%
    11:00 0°C° 0 mm 1 m/S 617 mmHg 88%
    12:00 +1°C° 0 mm 1 m/S 617 mmHg 88%
    13:00 +2°C° 0 mm 1 m/S 617 mmHg 89%
    14:00 +2°C° 0 mm 1 m/S 617 mmHg 90%
    15:00 +2°C° 0 mm 1 m/S 617 mmHg 91%
    16:00 +2°C° 0 mm 1 m/S 617 mmHg 92%
    17:00 +1°C° 0 mm 1 m/S 617 mmHg 93%
    18:00 0°C° 0 mm 1 m/S 617 mmHg 94%
    19:00 -1°C° 0 mm 1 m/S 617 mmHg 94%
    20:00 -1°C° 0,2 mm 1 m/S 617 mmHg 94%
    21:00 -1°C° 0,2 mm 1 m/S 618 mmHg 94%
    22:00 -1°C° 0,2 mm 1 m/S 618 mmHg 94%
    23:00 -1°C° 0,1 mm 1 m/S 618 mmHg 94%
    Mehr zeigen